Regional Weather Roundup
Issued by NWS Portland, ME

Current Version | Previous Version | Text Only | Print | Product List | Glossary Off
Versions: 1 2 3 4 5 6 7 8 9 10 11 12 13 14 15 16 17 18 19 20 21 22 23 24 25 26 27 28 29 30 31 32 33 34 35 36 37 38 39 40 41 42 43 44 45 46 47 48 49 50
000 ASUS41 KGYX 210405 RWRGYX WEATHER ROUNDUP FOR MAINE AND NEW HAMPSHIRE NATIONAL WEATHER SERVICE GRAY ME 1200 AM EDT TUE AUG 21 2018 MEZ002-005-006-010-012-015-018-020-021-024-026-027-029-210500- MAINE CITY SKY/WX TMP DP RH WIND PRES REMARKS PORTLAND FAIR 60 59 96 CALM 30.19F SANFORD FAIR 52 52 100 W3 30.20S BAR HARBOR FAIR 55 54 96 CALM 30.20S WISCASSET FAIR 55 55 100 CALM 30.20F ROCKLAND FAIR 54 54 100 CALM 30.19F FRYEBURG FAIR 55 55 100 CALM 30.20S LEWISTONAUBURN N/A 56 55 97 CALM 30.20S AUGUSTA FAIR 59 57 93 CALM 30.19F WATERVILLE FAIR 58 57 97 SW3 30.17F BANGOR FAIR 61 57 87 CALM 30.19F GREENVILLE N/A 61 53 75 CALM 30.18S MILLINOCKET FAIR 57 54 89 CALM 30.19S HOULTON FAIR 52 52 100 CALM 30.17F PRESQUE ISLE FAIR 53 51 93 CALM 30.19S FRENCHVILLE FAIR 63 51 65 S5 30.18R CARIBOU FAIR 59 53 80 SW3 30.17S $$ NHZ002-005-008-009-011-012-014-210500- NEW HAMPSHIRE CITY SKY/WX TMP DP RH WIND PRES REMARKS PORTSMOUTH MOCLDY 62 59 91 NW5 30.18S ROCHESTER FAIR 58 58 100 CALM 30.19S NASHUA FAIR 60 59 96 NW3 30.20R MANCHESTER FAIR 63 58 83 CALM 30.17S CONCORD FAIR 58 56 93 CALM 30.20R PLYMOUTH CLOUDY 59 57 94 CALM 30.20S BERLIN FAIR 53 52 96 CALM 30.20S WHITEFIELD MOCLDY 57 56 96 CALM 30.20R JAFFREY FAIR 57 56 96 CALM 30.22S KEENE FAIR N/A N/A N/A CALM 30.20S LEBANON CLOUDY 61 57 87 CALM 30.19S MT WASHINGTON PTCLDY 46 45 93 NE12 N/A $$ VTZ005-007-008-210500- VERMONT CITY SKY/WX TMP DP RH WIND PRES REMARKS ST JOHNSBURY N/A 61 60 97 MISG 30.17S MONTPELIER FAIR 58 57 97 CALM 30.22S BURLINGTON FAIR 67 56 67 CALM 30.13S $$ MAZ007-012-024-CTZ003-RIZ002-NYZ038-NYZ072-210500- SOUTHERN NEW ENGLAND AND NY CITY SKY/WX TMP DP RH WIND PRES REMARKS BOSTON MOCLDY 67 63 87 NE6 30.17F WORCESTER FAIR 60 58 92 N6 30.19F NANTUCKET CLOUDY 66 65 96 NE12 30.13R PROVIDENCE FAIR 64 60 87 NE7 30.17S HARTFORD FAIR 63 59 87 NE6 30.17S ALBANY FAIR 69 59 70 SE6 30.15S NEW YORK CITY MOCLDY 72 63 73 SE7 30.14S $$ ANZ081-ANZ082-ANZ150-NHZ014-MEZ023>029-210500- COASTAL MARINE OBSERVATIONS STATION/POSITION TIME TEMP WIND PRES WAVE AIR SEA DIR/SP/G HT/PER (UTC) (F) (DEG/KT/KT) (MB) (FT/S) MOUNT DESERT ROC 0400 60 340/ 6/ 6 1022.2F MATINICUS ROCK 0300 59 20/ 5/ 6 1022.1S ISLE OF SHOALS 0300 65 70/ 6/ 6 1021.6F JEFFREYS LEDGE 0336 69 N/A 4/ 8 $$ .............KEY.............. WCI - WIND CHILL TC - TEMPERATURE IN CELSIUS VSB - VISIBILITY IN MILES HX - HEAT INDEX FAIR- INDICATES FEW OR NO CLOUDS BELOW 12,000 FT, WITH NO SIGNIFICANT WEATHER AND/OR OBSTRUCTIONS TO VISIBILITY.

USA.gov is the U.S. government's official web portal to all federal, state and local government web resources and services.